Location: Sky Meadows State Park
(38.9917°N, 77.9667°W)
Time: 17:39:43
(UTC-04:00)

ISS - Visible Passes

Search period start: 21 May 2019 00:00
Search period end: 31 May 2019 00:00
Orbit: 407 x 410 km, 51.6° (Epoch: 22 May)

Date Brightness Start Highest point End Pass type
(mag) Time Alt. Az. Time Alt. Az. Time Alt. Az.
21 May -0.5 02:14:54 10° NNW 02:14:58 10° NNW 02:14:58 10° NNW visible
21 May -0.7 22:08:40 10° WNW 22:10:57 17° NNW 22:13:14 10° NNE visible
22 May -0.4 01:24:20 10° NNW 01:25:00 12° N 01:25:00 12° N visible
22 May -1.2 21:17:06 10° W 21:19:52 24° NNW 21:22:39 10° NNE visible
22 May -0.2 22:57:14 10° N 22:57:23 10° N 22:57:31 10° N visible
23 May -0.4 00:33:52 10° N 00:35:10 12° NNE 00:35:25 12° NNE visible
23 May -0.5 22:04:51 10° NW 22:06:08 12° NNW 22:07:27 10° N visible
23 May -0.3 23:43:45 10° N 23:43:57 10° N 23:44:07 10° N visible
24 May -0.7 21:12:58 10° NW 21:14:57 15° NNW 21:16:56 10° NNE visible
25 May -0.7 00:28:02 10° NNW 00:29:16 15° N 00:29:16 15° N visible
25 May -0.8 23:37:28 10° NNW 23:39:10 13° NNE 23:39:55 12° NNE visible
26 May -0.5 21:09:16 10° NNW 21:10:07 11° N 21:10:57 10° N visible
26 May -0.6 22:47:02 10° N 22:47:55 11° N 22:48:48 10° NNE visible
27 May -0.8 00:22:20 10° NW 00:23:17 16° NNW 00:23:17 16° NNW visible
27 May -1.4 23:31:38 10° NNW 23:33:58 20° NNE 23:33:58 20° NNE visible
28 May -1.1 22:41:00 10° NNW 22:43:01 15° NNE 22:44:41 11° NE visible
29 May -0.8 00:16:47 10° NW 00:17:24 15° NW 00:17:24 15° NW visible
29 May -0.9 21:50:27 10° N 21:51:46 12° NNE 21:53:06 10° NE visible
29 May -2.0 23:25:55 10° NW 23:28:07 31° N 23:28:07 31° N visible
30 May -2.0 22:35:09 10° NNW 22:37:57 25° NNE 22:38:52 22° NE visible
